New Ulm, MN

2:53 PM CST on December 06, 2019 (GMT -0600)
New Ulm Municipal

Weather History for KULM - October, 2019

Change the Weather History Date:

Friday, October 25, 2019

  Actual Average Record
Temperature  
Mean Temperature 40 °F -  
Max Temperature 57 °F 58 °F 81 °F (1989)
Min Temperature 24 °F 36 °F 21 °F (2013)
Degree Days  
Heating Degree Days 24    
Moisture  
Dew Point 27 °F    
Average Humidity 63    
Maximum Humidity 93    
Minimum Humidity 31    
Precipitation  
Precipitation 0.00 in - - ()
Sea Level Pressure  
Sea Level Pressure 30.18 in    
Wind  
Wind Speed 7 mph ()    
Max Wind Speed 18 mph    
Max Gust Speed 24 mph    
Visibility 10.0 miles    
Events      
Averages and records for this station are not official NWS values.
T = Trace of Precipitation, MM = Missing Value Source: Averaged Metar Reports

Daily Weather History Graph

Daily Weather History Graph

Search for Another Location

Airport or City:

Astronomy

Oct. 25, 2019 Rise Set
Actual Time 7:45 AM CDT 6:17 PM CDT
Civil Twilight 7:15 AM CDT 6:47 PM CDT
Nautical Twilight 6:41 AM CDT 7:21 PM CDT
Astronomical Twilight 6:08 AM CDT 7:55 PM CDT
Moon 4:18 AM CDT (10/25) 5:29 PM CDT (10/25)
Length of Visible Light 11h 31m
Length of Day
10h 32m
Waning Crescent, 9% of the Moon is Illuminated
Oct 25
Waning Crescent
Oct 27
New
Nov 4
First Quarter
Nov 12
Full
Nov 19
Last Quarter

Hourly Weather History & Observations

Time (CDT) Temp. Windchill Dew Point Humidity Pressure Visibility Wind Dir Wind Speed Gust Speed Precip Events Conditions
12:15 AM 28.4 °F 23.3 °F 24.8 °F 86% 30.33 in 10.0 mi South 4.6 mph - N/A   Clear
12:16 AM 28.4 °F 23.3 °F 24.8 °F 86% 30.33 in 10.0 mi South 4.6 mph - N/A   Clear
12:35 AM 26.6 °F 21.2 °F 23.0 °F 86% 30.33 in 10.0 mi South 4.6 mph - N/A   Clear
12:55 AM 26.6 °F 20.0 °F 21.2 °F 80% 30.33 in 10.0 mi South 5.8 mph - N/A   Clear
12:56 AM 26.6 °F 20.0 °F 21.2 °F 80% 30.33 in 10.0 mi South 5.8 mph - N/A   Clear
1:15 AM 26.6 °F 20.0 °F 21.2 °F 80% 30.32 in 10.0 mi South 5.8 mph - N/A   Clear
1:35 AM 26.6 °F 20.0 °F 23.0 °F 86% 30.32 in 10.0 mi SSW 5.8 mph - N/A   Clear
1:55 AM 26.6 °F 21.2 °F 23.0 °F 86% 30.32 in 10.0 mi South 4.6 mph - N/A   Clear
2:15 AM 28.4 °F 23.3 °F 24.8 °F 86% 30.31 in 10.0 mi SSW 4.6 mph - N/A   Clear
2:35 AM 28.4 °F 24.6 °F 24.8 °F 86% 30.31 in 10.0 mi SW 3.5 mph - N/A   Clear
2:36 AM 28.4 °F 23.3 °F 24.8 °F 86% 30.31 in 10.0 mi SSW 4.6 mph - N/A   Clear
2:55 AM 28.4 °F - 24.8 °F 86% 30.31 in 10.0 mi Calm Calm - N/A   Clear
3:15 AM 28.4 °F - 23.0 °F 80% 30.30 in 10.0 mi Calm Calm - N/A   Clear
3:16 AM 28.4 °F - 23.0 °F 80% 30.30 in 10.0 mi Calm Calm - N/A   Clear
3:35 AM 28.4 °F 24.6 °F 23.0 °F 80% 30.30 in 10.0 mi SSW 3.5 mph - N/A   Clear
3:55 AM 28.4 °F - 23.0 °F 80% 30.29 in 10.0 mi Calm Calm - N/A   Clear
3:56 AM 26.6 °F - 23.0 °F 86% 30.29 in 10.0 mi Calm Calm - N/A   Clear
4:15 AM 24.8 °F - 19.4 °F 80% 30.29 in 10.0 mi Calm Calm - N/A   Clear
4:16 AM 24.8 °F - 19.4 °F 80% 30.29 in 10.0 mi Calm Calm - N/A   Clear
4:35 AM 24.8 °F - 23.0 °F 93% 30.30 in 10.0 mi Calm Calm - N/A   Clear
4:55 AM 26.6 °F 19.1 °F 24.8 °F 93% 30.29 in 10.0 mi South 6.9 mph - N/A   Mostly Cloudy
4:56 AM 26.6 °F 19.1 °F 24.8 °F 93% 30.29 in 10.0 mi South 6.9 mph - N/A   Mostly Cloudy
5:15 AM 26.6 °F 19.1 °F 24.8 °F 93% 30.30 in 10.0 mi South 6.9 mph - N/A   Mostly Cloudy
5:35 AM 26.6 °F 20.0 °F 23.0 °F 86% 30.30 in 10.0 mi South 5.8 mph - N/A   Scattered Clouds
5:55 AM 24.8 °F 17.9 °F 21.2 °F 86% 30.30 in 10.0 mi South 5.8 mph - N/A   Clear
5:56 AM 24.8 °F 17.9 °F 21.2 °F 86% 30.30 in 10.0 mi South 5.8 mph - N/A   Clear
6:15 AM 24.8 °F 19.1 °F 21.2 °F 86% 30.30 in 10.0 mi South 4.6 mph - N/A   Clear
6:35 AM 24.8 °F 17.9 °F 21.2 °F 86% 30.30 in 10.0 mi South 5.8 mph - N/A   Clear
6:36 AM 24.8 °F 17.9 °F 21.2 °F 86% 30.30 in 10.0 mi South 5.8 mph - N/A   Clear
6:55 AM 24.8 °F 16.9 °F 21.2 °F 86% 30.29 in 10.0 mi SSE 6.9 mph - N/A   Clear
7:15 AM 26.6 °F 19.1 °F 23.0 °F 86% 30.28 in 10.0 mi SSE 6.9 mph - N/A   Clear
7:16 AM 26.6 °F 18.2 °F 23.0 °F 86% 30.28 in 10.0 mi SSE 8.1 mph - N/A   Clear
7:35 AM 26.6 °F 18.2 °F 24.8 °F 93% 30.28 in 10.0 mi South 8.1 mph - N/A   Clear
7:36 AM 26.6 °F 18.2 °F 24.8 °F 93% 30.28 in 10.0 mi South 8.1 mph - N/A   Clear
7:55 AM 28.4 °F 20.4 °F 24.8 °F 86% 30.28 in 10.0 mi South 8.1 mph - N/A   Clear
8:15 AM 28.4 °F 21.2 °F 24.8 °F 86% 30.28 in 10.0 mi South 6.9 mph - N/A   Clear
8:16 AM 28.4 °F 21.2 °F 24.8 °F 86% 30.28 in 10.0 mi South 6.9 mph - N/A   Clear
8:35 AM 30.2 °F 22.6 °F 26.6 °F 86% 30.27 in 10.0 mi South 8.1 mph - N/A   Clear
8:55 AM 30.2 °F 21.3 °F 26.6 °F 86% 30.26 in 10.0 mi South 10.4 mph - N/A   Clear
8:56 AM 30.2 °F 21.9 °F 26.6 °F 86% 30.26 in 10.0 mi South 9.2 mph - N/A   Clear
9:15 AM 32.0 °F 24.2 °F 26.6 °F 80% 30.26 in 10.0 mi South 9.2 mph - N/A   Clear
9:35 AM 33.8 °F 26.4 °F 28.4 °F 81% 30.26 in 10.0 mi South 9.2 mph - N/A   Clear
9:36 AM 33.8 °F 26.4 °F 28.4 °F 81% 30.26 in 10.0 mi South 9.2 mph - N/A   Clear
9:55 AM 37.4 °F 30.8 °F 28.4 °F 70% 30.25 in 10.0 mi South 9.2 mph - N/A   Clear
10:15 AM 39.2 °F 32.0 °F 30.2 °F 70% 30.24 in 10.0 mi South 11.5 mph - N/A   Clear
10:35 AM 41.0 °F 34.7 °F 30.2 °F 65% 30.24 in 10.0 mi South 10.4 mph - N/A   Clear
10:55 AM 42.8 °F 37.5 °F 30.2 °F 61% 30.23 in 10.0 mi SSW 9.2 mph - N/A   Clear
11:15 AM 44.6 °F 39.7 °F 32.0 °F 61% 30.23 in 10.0 mi SSW 9.2 mph - N/A   Clear
11:16 AM 44.6 °F 39.7 °F 32.0 °F 61% 30.23 in 10.0 mi South 9.2 mph - N/A   Clear
11:35 AM 46.4 °F 41.1 °F 32.0 °F 57% 30.22 in 10.0 mi SSW 11.5 mph - N/A   Clear
11:36 AM 46.4 °F 40.7 °F 32.0 °F 57% 30.22 in 10.0 mi SSW 12.7 mph - N/A   Clear
11:55 AM 48.2 °F - 32.0 °F 54% 30.21 in 10.0 mi SSW 11.5 mph 17.3 mph N/A   Clear
12:15 PM 51.8 °F - 32.0 °F 47% 30.21 in 10.0 mi SSW 12.7 mph 20.7 mph N/A   Clear
12:16 PM 51.8 °F - 32.0 °F 47% 30.21 in 10.0 mi SSW 12.7 mph 20.7 mph N/A   Clear
12:35 PM 51.8 °F - 30.2 °F 44% 30.19 in 10.0 mi SSW 17.3 mph 21.9 mph N/A   Clear
12:55 PM 53.6 °F - 30.2 °F 41% 30.17 in 10.0 mi SSW 16.1 mph 19.6 mph N/A   Clear
12:56 PM 53.6 °F - 30.2 °F 41% 30.17 in 10.0 mi SSW 15.0 mph 19.6 mph N/A   Clear
1:15 PM 55.4 °F - 28.4 °F 36% 30.16 in 10.0 mi SW 18.4 mph 21.9 mph N/A   Clear
1:16 PM 55.4 °F - 28.4 °F 36% 30.16 in 10.0 mi SW 17.3 mph 21.9 mph N/A   Clear
1:35 PM 55.4 °F - 28.4 °F 36% 30.15 in 10.0 mi SSW 17.3 mph - N/A   Clear
1:55 PM 55.4 °F - 28.4 °F 36% 30.13 in 10.0 mi SSW 15.0 mph - N/A   Clear
1:56 PM 55.4 °F - 28.4 °F 36% 30.13 in 10.0 mi SSW 12.7 mph - N/A   Clear
2:15 PM 55.4 °F - 26.6 °F 33% 30.13 in 10.0 mi SSW 16.1 mph 24.2 mph N/A   Clear
2:35 PM 55.4 °F - 28.4 °F 36% 30.11 in 10.0 mi SW 12.7 mph 18.4 mph N/A   Clear
2:55 PM 55.4 °F - 28.4 °F 36% 30.10 in 10.0 mi SSW 13.8 mph 21.9 mph N/A   Clear
2:56 PM 55.4 °F - 28.4 °F 36% 30.10 in 10.0 mi SSW 12.7 mph 21.9 mph N/A   Clear
3:15 PM 57.2 °F - 28.4 °F 33% 30.09 in 10.0 mi SSW 13.8 mph - N/A   Clear
3:35 PM 57.2 °F - 26.6 °F 31% 30.08 in 10.0 mi SSW 15.0 mph 20.7 mph N/A   Clear
3:55 PM 57.2 °F - 28.4 °F 33% 30.07 in 10.0 mi SSW 16.1 mph - N/A   Clear
3:56 PM 57.2 °F - 28.4 °F 33% 30.07 in 10.0 mi SSW 15.0 mph 18.4 mph N/A   Clear
4:15 PM 57.2 °F - 28.4 °F 33% 30.07 in 10.0 mi SSW 12.7 mph - N/A   Clear
4:16 PM 57.2 °F - 28.4 °F 33% 30.07 in 10.0 mi SSW 13.8 mph - N/A   Clear
4:35 PM 57.2 °F - 26.6 °F 31% 30.06 in 10.0 mi SSW 16.1 mph - N/A   Clear
4:55 PM 57.2 °F - 26.6 °F 31% 30.06 in 10.0 mi SSW 11.5 mph 16.1 mph N/A   Clear
4:56 PM 57.2 °F - 26.6 °F 31% 30.06 in 10.0 mi SSW 11.5 mph 16.1 mph N/A   Clear
5:15 PM 55.4 °F - 28.4 °F 36% 30.06 in 10.0 mi SSW 11.5 mph - N/A   Clear
5:16 PM 55.4 °F - 28.4 °F 36% 30.06 in 10.0 mi SSW 12.7 mph - N/A   Clear
5:35 PM 55.4 °F - 28.4 °F 36% 30.06 in 10.0 mi SSW 12.7 mph 17.3 mph N/A   Clear
5:36 PM 55.4 °F - 28.4 °F 36% 30.06 in 10.0 mi SSW 12.7 mph 17.3 mph N/A   Clear
5:55 PM 53.6 °F - 28.4 °F 38% 30.05 in 10.0 mi SSW 10.4 mph - N/A   Clear
6:15 PM 51.8 °F - 28.4 °F 41% 30.05 in 10.0 mi South 9.2 mph - N/A   Clear
6:16 PM 51.8 °F - 28.4 °F 41% 30.05 in 10.0 mi South 10.4 mph - N/A   Clear
6:35 PM 50.0 °F - 30.2 °F 47% 30.06 in 10.0 mi South 8.1 mph - N/A   Clear
6:55 PM 48.2 °F - 30.2 °F 50% 30.06 in 10.0 mi South 9.2 mph - N/A   Clear
6:56 PM 48.2 °F - 30.2 °F 50% 30.06 in 10.0 mi South 9.2 mph - N/A   Clear
7:18 PM 46.4 °F 41.9 °F 30.2 °F 53% 30.05 in 10.0 mi South 9.2 mph - N/A   Clear
7:35 PM 46.4 °F 41.5 °F 30.2 °F 53% 30.05 in 10.0 mi South 10.4 mph - N/A   Clear
7:55 PM 46.4 °F 41.5 °F 30.2 °F 53% 30.05 in 10.0 mi South 10.4 mph - N/A   Clear
7:56 PM 46.4 °F 41.5 °F 30.2 °F 53% 30.05 in 10.0 mi South 10.4 mph - N/A   Clear
8:15 PM 46.4 °F 41.9 °F 30.2 °F 53% 30.05 in 10.0 mi South 9.2 mph - N/A   Clear
8:16 PM 46.4 °F 41.9 °F 30.2 °F 53% 30.05 in 10.0 mi South 9.2 mph - N/A   Clear
8:35 PM 44.6 °F 38.8 °F 30.2 °F 57% 30.05 in 10.0 mi South 11.5 mph - N/A   Clear
8:36 PM 44.6 °F 39.2 °F 30.2 °F 57% 30.05 in 10.0 mi South 10.4 mph - N/A   Clear
8:55 PM 44.6 °F 38.4 °F 28.4 °F 53% 30.05 in 10.0 mi South 12.7 mph - N/A   Clear
9:16 PM 44.6 °F 38.8 °F 28.4 °F 53% 30.05 in 10.0 mi South 11.5 mph 17.3 mph N/A   Clear
9:35 PM 44.6 °F 38.8 °F 30.2 °F 57% 30.05 in 10.0 mi South 11.5 mph - N/A   Clear
9:55 PM 42.8 °F 36.2 °F 30.2 °F 61% 30.04 in 10.0 mi South 12.7 mph - N/A   Clear
9:56 PM 42.8 °F 36.2 °F 30.2 °F 61% 30.04 in 10.0 mi South 12.7 mph - N/A   Clear
10:15 PM 42.8 °F 35.8 °F 30.2 °F 61% 30.04 in 10.0 mi South 13.8 mph - N/A   Clear
10:35 PM 42.8 °F 36.2 °F 30.2 °F 61% 30.04 in 10.0 mi South 12.7 mph - N/A   Clear
10:36 PM 42.8 °F 36.2 °F 30.2 °F 61% 30.03 in 10.0 mi South 12.7 mph - N/A   Clear
10:55 PM 42.8 °F 36.6 °F 30.2 °F 61% 30.02 in 10.0 mi South 11.5 mph - N/A   Clear
11:15 PM 42.8 °F 36.6 °F 30.2 °F 61% 30.02 in 10.0 mi South 11.5 mph - N/A   Clear
11:35 PM 42.8 °F 36.2 °F 28.4 °F 57% 30.01 in 10.0 mi South 12.7 mph - N/A   Clear
11:36 PM 42.8 °F 36.6 °F 28.4 °F 57% 30.02 in 10.0 mi South 11.5 mph - N/A   Clear
11:55 PM 42.8 °F 36.2 °F 28.4 °F 57% 30.01 in 10.0 mi South 12.7 mph - N/A   Clear